Tracking 28790 objects as of 18-Apr-2024
HD Live streaming from Space Station
objects crossing your sky now

STARLINK-4679

Track STARLINK-4679 now!
10-day predictions
STARLINK-4679 is classified as:


NORAD ID: 53782
Int'l Code: 2022-111K
Perigee: 545.9 km
Apogee: 547.9 km
Inclination: 53.2 °
Period: 95.4 minutes
Semi major axis: 6917 km
RCS: Unknown
Launch date: September 11, 2022
Source: United States (US)
Launch site: AIR FORCE EASTERN TEST RANGE (AFETR)
Your satellite tracking list
Your tracking list is empty




NASA's NSSDC Master Catalog

Two Line Element Set (TLE):
1 53782U 22111K   24109.52489598 -.00000124  00000-0  10284-4 0  9995
2 53782  53.2165 132.4653 0001407  98.0178 262.0973 15.08832503 88693
Source of the keplerian elements: AFSPC